Regional Weather Roundup
Issued by NWS

Home | Current Version | Previous Version | Graphics & Text | Print | Product List | Glossary On
Versions: 1 2 3 4 5 6 7 8 9 10 11 12 13 14 15 16 17 18 19 20 21 22 23 24 25 26 27
000
ASUS45 KBOI 221910
RWRID

IDAHO REGIONAL WEATHER ROUNDUP
NATIONAL WEATHER SERVICE BOISE ID
100 PM MDT SUN OCT 22 2017

NOTE: "FAIR" INDICATES FEW OR NO CLOUDS BELOW 12000 FEET
WITH NO SIGNIFICANT WEATHER AND/OR OBSTRUCTIONS TO VISIBILITY

IDZ012-014-222000-
SOUTHWEST IDAHO


CITY           SKY/WX    TMP DP  RH WIND       PRES   REMARKS
BOISE          CLOUDY    55  43  63 SE13      30.28R
CALDWELL       CLOUDY    60  45  57 E10       30.26S
MOUNTAIN HOME  CLOUDY    58  42  54 CALM      30.29R
$$

IDZ016-017-222000-
SOUTHCENTRAL IDAHO


CITY           SKY/WX    TMP DP  RH WIND       PRES   REMARKS
BURLEY         CLOUDY    58  38  47 W13       30.28F
JEROME         PTSUNNY   57  43  59 SW14      30.30S
TWIN FALLS     CLOUDY    56  43  61 W5        30.31S
$$

IDZ019>023-222000-
SOUTHEAST IDAHO


CITY           SKY/WX    TMP DP  RH WIND       PRES   REMARKS
IDAHO FALLS    CLOUDY    54  37  52 SW29G43   30.24F
POCATELLO      NOT AVBL
REXBURG        CLOUDY    53  37  54 SW25G39   30.21F
$$

IDZ006-010-011-018-031-032-222000-
CENTRAL IDAHO MOUNTAINS


CITY           SKY/WX    TMP DP  RH WIND       PRES   REMARKS
MCCALL         LGT RAIN  46  40  79 S17       30.21R
HAILEY         PTSUNNY   52  41  66 SE5       30.28F
STANLEY          N/A     46  36  68 S12       30.26R
SALMON         CLOUDY    60  36  40 W17G30    30.05R
CHALLIS        PTSUNNY   57  35  43 W5        30.13S
$$

IDZ002-004-006-007-026-222000-
NORTHERN IDAHO


CITY           SKY/WX    TMP DP  RH WIND       PRES   REMARKS
LEWISTON       CLOUDY    63  42  46 W21G28    30.11R
LOWELL           N/A     46  45  96 CALM      30.14R
COEUR D`ALENE  PTSUNNY   56  38  50 W22G35    30.03R
MULLAN PASS    PTSUNNY   35  30  82 W9G25     30.01R WCI  28
$$




USA.gov is the U.S. government's official web portal to all federal, state and local government web resources and services.